Flag for Brazil Weather past 2 weeks in Porto Acre, Acre, Brazil

Now
75 °F

Clear.


Feels Like: 75 °F
Forecast: 70 / 93 °F
Wind: No wind

Location: Rio Branco Airport

Current Time: Aug 30, 2015 at 9:44:39 PM

Latest Report: Aug 30, 2015 at 9:00 PM


Visibility: 10 mi

Pressure: 29.92 "Hg

Humidity: 89%

Dew point: 72 °F

Location of Porto AcreLocation

Historic Weather in Porto Acre — Graph

°F

Porto Acre temperature yesterday

Maximum temperature yesterday: 91 °F (at 12:00 PM)
Minimum temperature yesterday: 72 °F (at 2:00 AM)
Average temperature yesterday: 80 °F

Past Weeks' High & Low Weather Summary

 TemperatureHumidityPressure
High97 °F (Aug 22, 3:00 PM)100% (Aug 16, 5:00 AM)30.04 "Hg (Aug 16, 5:00 AM)
Low36 °F (Aug 28, 12:00 AM)32% (Aug 24, 1:00 PM)29.74 "Hg (Aug 26, 4:00 PM)
Average81 °F71%29.88 "Hg
* Reported Aug 15 8:00 PM — Aug 30 8:00 PM, Porto Acre, Weather by CustomWeather, © 2015

Note: Actual official high and low records may vary slightly from our data, if they occured in-between our weather recording intervals... More about our weather records

Advertising

Porto Acre weather history for previous 24 hours

 ConditionsComfort  
Time TempWeatherWind HumidityBarometerVisibility
8:00 PM
Sun, Aug 30
77 °FClear.No wind79%29.89 "Hg10 mi
7:00 PM77 °FClear.No wind89%29.86 "Hg10 mi
6:00 PM82 °FScattered clouds.2 mph70%29.86 "HgN/A
5:00 PM84 °FScattered clouds.3 mph62%29.83 "HgN/A
4:00 PM84 °FScattered clouds.5 mph58%29.83 "HgN/A
3:00 PM82 °FThunderstorms. Scattered clouds.8 mph62%29.86 "HgN/A
2:00 PM81 °FScattered clouds.9 mph74%29.89 "HgN/A
1:00 PM93 °FScattered clouds.5 mph47%29.92 "HgN/A
12:00 PM93 °FScattered clouds.6 mph47%29.95 "HgN/A
11:00 AM91 °FSunny.3 mph49%29.98 "Hg10 mi
10:00 AM90 °FSunny.3 mph55%30.01 "Hg10 mi
9:00 AM86 °FSunny.3 mph66%30.01 "Hg10 mi
8:00 AM81 °FSunny.3 mph74%29.98 "Hg10 mi
7:00 AM75 °FSunny.No wind94%29.95 "Hg10 mi
6:00 AM72 °FClear.2 mph94%29.92 "Hg10 mi
5:00 AM72 °FClear.No wind94%29.92 "Hg10 mi
4:00 AM72 °FClear.No wind94%29.89 "Hg10 mi
3:00 AM72 °FClear.2 mph94%29.89 "Hg10 mi
2:00 AM73 °FClear.2 mph94%29.89 "Hg10 mi
1:00 AM73 °FClear.2 mph94%29.92 "Hg10 mi
12:00 AM73 °FClear.2 mph94%29.92 "Hg10 mi
11:00 PM
Sat, Aug 29
75 °FClear.3 mph89%29.92 "Hg10 mi
10:00 PM73 °FClear.3 mph94%29.92 "Hg10 mi
9:00 PM75 °FClear.No wind89%29.92 "Hg10 mi
Weather by CustomWeather, © 2015

See weather overviewHow to use our weather pages